User: anonymous   Login
Location: ??
(35.5052°N, 139.7262°E)
Time: 06:32:46
(UTC+00:00)
Language:

CBERS 1 DEB - Orbit

View from above orbital plane
View from above orbital plane
View from above satellite
View from above satellite

Ground track
Ground track

The orbit data is extracted from the following two-line orbital elements,

1 30783U 99057NS  22028.47887351  .00001007  00000-0  36305-3 0  9996
2 30783  98.1305 203.0792 0052032  14.6180  43.9422 14.34858827780193
Epoch (UTC): 28 January 2022 11:29:34
Eccentricity: 0.0052032
inclination: 98.1305°
perigee height: 738 km
apogee height: 813 km
right ascension of ascending node: 203.0792°
argument of perigee: 14.6180°
revolutions per day: 14.34858827
mean anomaly at epoch: 43.9422°
orbit number at epoch: 78019

The dashed part of the orbit path shows where the satellite is in the earth's shadow,  

DLR